Location: Pardubice
(50.0330°N, 15.7830°E)
Time: 17:45:31
(UTC+01:00)

S-56A Canister/Altair - Pass Details

Date: 13 August 2025
Orbit: 633 x 2484 km, 38.9° (Epoch: 5 March)

Event Time Altitude Azimuth Distance (km) Brightness Sun altitude
Rises 14:39:51 0° 265° (W) 5,181 12.2 49.2°
Reaches altitude 10° 14:44:04 10° 257° (WSW) 3,869 11.8 48.8°
Maximum altitude 14:52:12 33° 199° (SSW) 1,942 11.1 48.0°
Drops below altitude 10° 14:57:59 10° 137° (SE) 2,703 10.5 47.3°
Sets 15:00:25 0° 127° (SE) 3,453 10.8 47.1°
